Temperature
1 2 2 2 2 2 2 2 2 2 2 2 2 2 2 2 2 2 2 2 2 2 1 1 1 1 1 1 1 1 1 1 0 0 0 -0 -0 -0 -0 -0 0 0 0
1 1 1 1 2 2 2 2 1 1 1 2 2 2 2 2 2 2 1 1 1 1 1 1 1 1 0 0 1 0 0 0 0 0 -0 -1 -1 -1 -1 -1 -1 -1 -1
0 0 1 1 1 1 1 1 1 1 1 1 1 1 1 1 1 1 1 1 0 0 0 -0 -0 -0 0 0 0 0 -0 -0 -0 -1 -1 -1 -1 -1 -1 -1 -1 -1 -1
-0 -0 -0 0 0 0 0 0 0 0 0 0 0 0 0 1 0 0 0 -0 -0 -0 -1 -1 -1 -1 -1 -1 -1 -1 -1 -1 -1 -1 -1 -2 -2 -2 -2 -2 -2 -2 -2
-1 -1 -1 -1 -1 -1 -0 -0 -1 -1 -1 -1 -0 -0 -0 -0 -0 -0 -1 -1 -1 -1 -1 -1 -1 -1 -1 -2 -2 -1 -2 -2 -2 -2 -2 -2 -3 -3 -3 -3 -3 -3 -3
-1 -1 -1 -1 -1 -1 -1 -1 -1 -1 -1 -1 -1 -1 -1 -1 -1 -1 -1 -2 -2 -2 -2 -2 -2 -2 -2 -2 -2 -2 -2 -2 -2 -2 -3 -3 -3 -3 -3 -4 -4 -4 -4
-2 -2 -2 -2 -2 -2 -2 -2 -2 -2 -2 -2 -2 -2 -2 -2 -2 -2 -2 -2 -3 -3 -3 -3 -3 -3 -3 -3 -3 -3 -3 -3 -3 -3 -3 -3 -3 -4 -4 -4 -4 -4 -5
-3 -3 -3 -2 -2 -2 -2 -2 -2 -3 -3 -3 -3 -3 -3 -3 -3 -3 -3 -3 -3 -3 -3 -4 -4 -4 -4 -4 -4 -4 -4 -4 -4 -4 -4 -4 -4 -5 -5 -5 -5 -5 -5
-3 -3 -3 -3 -3 -3 -3 -3 -3 -3 -3 -4 -4 -4 -4 -4 -4 -4 -4 -4 -4 -4 -4 -4 -5 -5 -5 -5 -5 -5 -5 -5 -5 -5 -5 -5 -5 -5 -5 -6 -6 -6 -6
-4 -4 -4 -4 -4 -4 -4 -4 -4 -4 -4 -4 -4 -4 -4 -4 -5 -5 -5 -5 -5 -5 -5 -5 -6 -6 -5 -5 -5 -5 -5 -5 -6 -6 -6 -6 -6 -6 -6 -6 -6 -7 -7
-5 -5 -5 -4 -4 -4 -5 -5 -5 -5 -5 -5 -5 -5 -5 -5 -6 -6 -6 -6 -6 -6 -6 -6 -6 -6 -6 -6 -6 -6 -6 -6 -6 -7 -7 -7 -7 -7 -7 -7 -7 -7 -7
-5 -5 -5 -5 -5 -5 -5 -5 -5 -5 -6 -6 -6 -6 -6 -6 -6 -6 -6 -6 -6 -7 -7 -7 -7 -7 -7 -7 -7 -7 -7 -7 -7 -7 -7 -7 -7 -7 -7 -7 -7 -7 -8
-6 -6 -6 -6 -6 -6 -6 -6 -6 -6 -6 -6 -7 -7 -7 -7 -7 -7 -7 -7 -7 -7 -7 -7 -7 -7 -7 -8 -8 -8 -8 -8 -8 -8 -8 -8 -8 -8 -8 -8 -8 -8 -8
-7 -7 -7 -7 -7 -7 -7 -7 -7 -7 -7 -7 -7 -8 -8 -8 -8 -8 -8 -8 -8 -8 -8 -8 -8 -8 -8 -8 -8 -9 -9 -9 -9 -9 -9 -9 -9 -9 -9 -8 -8 -8 -8
-8 -8 -8 -8 -8 -8 -8 -8 -8 -8 -8 -8 -8 -8 -8 -8 -8 -8 -8 -8 -9 -9 -9 -9 -9 -9 -9 -9 -9 -9 -9 -9 -9 -9 -9 -9 -9 -9 -9 -9 -9 -9 -9
-9 -9 -9 -9 -9 -9 -9 -9 -9 -9 -9 -9 -9 -9 -9 -9 -9 -9 -9 -9 -9 -9 -9 -9 -9 -9 -10 -10 -10 -10 -10 -10 -10 -10 -10 -10 -10 -10 -10 -10 -10 -10 -10
-9 -9 -9 -10 -10 -10 -10 -10 -9 -9 -9 -9 -9 -9 -10 -10 -10 -10 -10 -10 -10 -10 -10 -10 -10 -10 -10 -10 -10 -10 -10 -10 -10 -10 -10 -11 -11 -11 -11 -11 -11 -10 -10
-10 -10 -10 -10 -10 -10 -10 -10 -10 -10 -10 -10 -10 -10 -10 -10 -10 -10 -10 -10 -10 -10 -10 -10 -10 -11 -11 -11 -11 -11 -11 -11 -11 -11 -11 -11 -11 -11 -11 -11 -11 -11 -11
-10 -11 -11 -11 -11 -11 -11 -11 -11 -11 -11 -11 -11 -11 -11 -11 -11 -11 -11 -11 -11 -11 -11 -11 -11 -11 -11 -11 -11 -11 -11 -11 -11 -12 -12 -12 -12 -12 -12 -12 -12 -12 -12
-11 -11 -11 -11 -11 -11 -11 -11 -12 -12 -12 -12 -12 -12 -12 -11 -11 -11 -11 -11 -11 -11 -11 -11 -11 -12 -12 -12 -12 -12 -12 -12 -12 -12 -12 -12 -12 -12 -12 -12 -12 -12 -12
-11 -11 -12 -12 -12 -12 -12 -12 -12 -12 -12 -12 -12 -12 -12 -12 -12 -12 -12 -12 -12 -12 -12 -12 -12 -12 -12 -12 -12 -12 -12 -13 -13 -13 -13 -13 -13 -13 -13 -13 -13 -13 -13
-12 -12 -12 -12 -12 -12 -12 -12 -12 -13 -13 -13 -13 -13 -13 -13 -13 -13 -13 -13 -13 -13 -13 -13 -13 -13 -13 -13 -13 -13 -13 -13 -13 -13 -13 -13 -14 -14 -14 -14 -13 -13 -13
-12 -12 -12 -12 -13 -13 -13 -13 -13 -13 -13 -13 -13 -13 -13 -13 -13 -13 -13 -13 -13 -13 -13 -13 -13 -13 -13 -14 -14 -14 -13 -13 -14 -14 -14 -14 -14 -14 -14 -14 -14 -14 -14
-12 -12 -13 -13 -13 -13 -13 -13 -13 -13 -14 -14 -14 -14 -14 -14 -14 -14 -14 -14 -14 -14 -14 -14 -14 -14 -14 -14 -14 -14 -14 -14 -14 -14 -14 -14 -14 -14 -14 -14 -14 -14 -14
-13 -13 -13 -13 -13 -13 -14 -14 -14 -14 -14 -14 -14 -14 -14 -14 -14 -14 -14 -14 -14 -14 -14 -14 -14 -14 -14 -14 -14 -14 -14 -14 -14 -14 -15 -15 -15 -15 -15 -15 -15 -15 -15
-13 -13 -13 -14 -14 -14 -14 -14 -14 -14 -14 -15 -15 -15 -15 -15 -15 -15 -15 -15 -15 -15 -15 -15 -15 -15 -15 -15 -15 -15 -15 -15 -15 -15 -15 -15 -15 -15 -15 -15 -15 -15 -15
Wind_Speed
0 1 2 3 4 4 4 4 4 4 4 4 4 4 5 5 5 5 5 5 5 4 4 4 4 3 3 3 3 2 2 2 2 1 0 1 1 1 2 3 3 3 4
1 1 1 3 4 4 4 4 4 4 5 5 4 4 5 5 5 5 6 5 6 6 5 5 5 4 4 3 3 3 3 2 3 2 1 1 1 2 1 2 3 3 4
0 1 2 3 4 4 4 4 4 4 4 4 4 4 4 5 5 5 5 5 5 5 5 6 5 5 5 3 4 4 3 2 2 3 2 1 1 1 1 1 2 2 4
0 1 2 2 3 4 4 4 4 4 4 4 4 4 4 4 4 5 4 4 4 4 4 5 5 6 6 5 4 4 4 3 3 3 2 1 1 1 1 1 1 2 3
1 1 1 2 2 3 4 4 4 4 4 4 4 3 3 3 4 4 4 4 4 4 4 4 4 5 6 5 4 4 4 4 4 3 3 2 2 2 2 1 1 2 3
2 1 2 2 3 3 3 4 4 4 4 4 4 4 3 3 5 6 5 4 4 4 4 4 4 4 5 6 5 5 5 5 5 4 3 4 4 3 2 2 1 1 2
1 1 2 2 3 2 3 3 4 4 3 4 4 3 3 3 4 5 5 4 4 4 4 4 3 4 5 4 4 3 3 4 5 4 5 5 4 4 3 2 2 2 3
1 1 2 2 2 2 3 3 3 3 4 4 4 3 3 3 4 4 4 4 3 3 3 4 4 4 5 5 4 3 1 1 3 3 3 3 3 3 4 3 2 2 2
1 1 1 2 2 3 3 2 2 3 3 3 3 4 3 3 4 5 4 3 3 3 2 3 4 4 6 7 5 4 2 1 1 3 3 3 3 4 3 1 1 2 3
1 1 1 2 2 3 3 2 2 2 2 3 3 3 3 3 4 4 4 3 3 3 2 2 3 4 6 6 5 5 4 3 2 1 1 1 2 3 4 3 3 3 2
1 1 2 2 2 3 3 2 3 3 3 3 3 2 3 3 3 4 4 3 3 3 2 2 2 5 5 5 4 4 5 3 2 2 2 1 1 0 1 2 2 3 3
2 2 2 2 2 3 3 3 3 3 3 3 2 2 2 2 1 2 3 3 3 3 3 2 3 4 4 4 3 4 4 3 2 2 2 1 1 1 1 2 3 3 4
3 3 3 3 2 2 3 3 3 3 3 2 2 2 1 1 1 1 2 3 2 2 2 3 3 3 2 2 3 3 2 2 2 2 2 2 2 1 1 1 1 2 3
3 3 3 3 3 2 2 2 2 3 3 2 2 2 1 1 1 1 1 1 1 1 1 2 2 2 2 1 1 1 1 2 2 2 2 1 1 1 1 1 1 1 1
3 2 2 3 2 2 2 2 2 2 2 3 2 2 2 1 1 1 1 1 2 2 2 1 1 1 1 1 1 1 1 1 1 1 1 1 1 1 1 1 1 1 2
2 2 2 2 2 2 2 3 3 3 3 2 1 1 1 1 1 0 1 1 2 3 2 2 2 2 2 2 2 2 1 1 1 1 1 1 1 2 2 2 2 2 3
2 2 2 2 2 2 2 2 2 3 3 3 3 2 1 1 1 1 1 0 1 1 1 2 2 2 2 2 2 2 2 2 2 1 1 2 2 2 2 2 2 2 3
2 2 2 2 2 2 2 2 2 2 1 2 2 2 2 2 2 1 1 1 1 0 1 1 2 1 1 1 2 2 1 1 1 2 2 2 2 2 3 3 3 3 4
2 2 2 2 2 2 2 2 1 1 1 1 1 2 3 3 3 3 2 1 1 0 0 1 1 1 1 2 2 2 2 2 2 2 2 3 2 3 3 4 4 6 4
1 2 2 2 1 1 1 1 1 1 1 1 1 1 2 2 1 2 1 0 0 0 0 1 0 1 1 1 2 2 2 2 2 2 3 3 3 3 4 4 4 4 4
1 1 2 1 1 1 1 1 1 1 1 1 1 1 2 1 1 1 1 1 0 0 0 0 0 1 1 1 1 2 2 3 3 3 3 3 3 3 4 4 4 4 4
1 1 1 1 1 1 1 1 1 1 1 1 1 1 3 2 1 1 1 1 1 0 0 0 1 1 1 1 1 2 2 3 3 3 3 3 4 4 4 4 4 4 4
1 1 1 1 1 0 1 1 1 0 0 0 1 1 1 1 1 1 1 1 1 1 2 2 1 2 3 4 4 4 4 4 4 4 4 4 4 4 4 5 5 5 5
1 1 1 1 1 1 1 0 0 0 0 1 1 1 1 1 2 2 2 2 2 2 3 3 4 4 5 6 6 7 8 9 8 8 8 6 6 5 5 5 6 6 6
1 1 1 1 1 1 0 0 0 1 1 1 1 2 2 2 2 2 2 2 3 3 4 5 6 7 8 9 9 10 11 12 12 10 10 8 7 7 7 7 6 6 6
1 1 0 0 0 0 1 1 1 1 1 2 2 2 2 2 3 3 3 3 3 4 5 6 8 9 10 11 12 12 13 14 14 13 11 8 7 7 7 7 8 7 7
Wind_Direction
213 207 178 173 166 157 157 158 155 154 157 158 164 169 166 166 163 164 167 166 169 170 171 170 172 162 163 165 161 162 157 147 187 264 280 158 152 180 270 282 278 292 300
178 171 171 159 154 155 156 153 150 159 164 162 166 171 175 171 168 172 174 176 179 180 182 176 179 173 171 172 170 173 172 166 168 199 239 238 239 198 231 252 276 288 292
112 152 145 153 159 162 157 155 157 160 162 159 167 175 180 176 177 176 175 180 184 184 182 182 182 174 180 180 176 176 173 162 154 173 207 226 242 221 258 276 283 280 294
61 150 157 154 161 161 152 152 154 156 158 161 173 174 178 179 175 168 168 171 176 181 180 180 183 184 186 183 185 180 166 157 152 164 183 203 221 249 219 237 313 323 307
129 140 151 137 132 138 147 150 151 154 161 163 166 165 170 180 172 165 171 170 169 173 178 182 186 185 185 188 189 176 166 165 165 173 191 200 211 209 219 228 263 313 311
125 123 123 118 125 135 144 148 149 156 158 159 162 165 175 188 183 180 172 169 171 175 180 178 177 181 188 198 206 196 184 178 182 190 202 205 212 211 215 229 240 287 291
105 102 106 116 129 139 139 144 157 161 159 164 164 164 172 181 183 182 181 163 165 173 172 172 183 184 183 174 192 206 208 211 209 193 197 210 208 203 198 216 231 245 261
116 115 113 114 125 135 140 149 160 161 165 167 164 162 163 177 186 184 178 149 150 163 171 173 173 172 179 174 167 167 183 229 222 201 194 206 205 190 188 205 226 262 279
131 138 135 141 143 142 144 150 152 148 158 162 158 158 160 174 194 190 171 143 147 153 159 165 170 171 190 191 169 163 168 202 231 225 224 224 234 235 224 179 209 238 276
130 126 126 137 143 146 145 142 134 136 144 152 151 153 158 166 192 190 172 151 153 157 153 163 196 198 205 199 175 169 181 198 191 187 211 239 256 251 250 224 210 215 245
71 80 90 103 122 131 126 125 128 129 121 133 139 145 150 165 186 184 178 164 168 164 169 171 192 210 214 205 191 180 198 191 177 178 183 176 156 161 240 243 218 210 219
76 84 88 95 103 110 119 119 121 126 126 123 128 131 137 155 172 176 182 186 179 164 173 173 189 202 206 204 200 199 208 199 174 177 179 187 198 220 241 236 230 232 232
74 80 87 86 88 97 115 118 117 121 124 124 124 129 125 116 131 153 181 182 181 167 172 181 187 195 201 185 207 220 214 191 181 190 197 207 210 209 197 207 218 258 275
79 78 83 90 88 85 90 105 121 130 131 129 133 135 134 125 132 150 154 147 148 149 145 173 192 194 183 182 217 227 197 195 196 202 204 202 182 175 204 225 244 261 272
80 83 83 86 93 93 88 91 99 116 143 144 150 150 148 166 215 216 163 162 164 184 158 129 136 142 160 167 172 172 166 183 205 187 180 180 198 211 237 238 241 241 243
84 83 88 91 91 93 92 73 69 85 94 99 117 146 146 193 241 223 164 183 208 198 165 156 177 182 188 193 195 196 192 195 191 193 193 194 213 230 238 239 233 234 248
89 86 89 84 86 93 93 91 76 61 67 69 65 66 63 32 21 49 86 78 252 201 171 171 184 185 185 184 193 201 209 204 190 200 217 216 217 231 242 246 246 247 255
90 88 85 91 83 83 89 92 97 96 72 45 39 45 38 28 19 21 26 44 29 113 154 175 175 175 176 189 200 202 196 190 194 204 219 227 227 229 238 243 247 249 255
101 105 100 95 88 83 86 89 94 95 87 58 38 35 33 23 17 14 26 83 124 146 161 167 167 178 191 198 204 205 204 212 214 214 224 230 228 230 240 245 248 257 259
110 87 88 98 101 98 98 99 100 97 83 67 47 32 31 30 23 4 16 68 147 195 189 182 186 193 195 199 207 208 213 223 225 226 230 232 232 231 238 242 245 251 253
113 110 89 86 99 105 105 112 111 102 82 55 33 344 351 33 4 351 358 9 299 251 222 210 212 222 229 220 219 221 225 230 229 227 231 234 234 240 246 247 246 248 255
107 104 108 113 98 91 90 96 96 90 75 32 0 340 337 6 1 347 344 342 345 346 321 234 245 240 227 234 238 237 240 242 237 231 231 232 234 238 242 244 245 248 251
109 108 105 102 104 126 58 77 86 84 49 338 328 330 332 330 324 316 309 311 312 300 279 264 256 254 251 252 248 237 239 242 239 231 232 236 237 239 241 244 245 249 251
124 127 134 135 131 137 139 140 142 211 278 286 294 297 294 288 288 290 289 290 288 280 272 265 258 255 257 262 261 258 256 257 252 243 233 230 233 238 240 246 248 248 250
133 136 146 157 159 167 183 197 228 256 274 281 280 283 285 282 281 283 283 280 278 277 274 268 263 261 260 260 262 264 266 265 262 252 240 232 230 232 236 242 245 247 249
120 128 140 142 177 212 225 242 255 261 264 273 273 273 274 275 274 275 276 273 274 273 272 271 266 264 266 267 268 269 269 268 265 260 249 235 227 231 231 237 239 242 244
Height
1463 1464 1466 1468 1470 1472 1475 1477 1479 1481 1484 1486 1488 1491 1493 1494 1496 1498 1500 1502 1504 1506 1508 1510 1511 1513 1515 1516 1518 1519 1520 1521 1521 1523 1525 1525 1526 1527 1527 1527 1527 1527 1527
1460 1461 1462 1464 1467 1469 1471 1473 1476 1477 1480 1482 1484 1486 1488 1490 1492 1494 1496 1498 1500 1501 1503 1505 1507 1509 1510 1512 1513 1515 1516 1517 1518 1518 1520 1521 1522 1523 1523 1523 1523 1524 1524
1457 1458 1460 1461 1463 1465 1467 1470 1472 1474 1476 1478 1480 1482 1484 1486 1488 1490 1492 1494 1495 1497 1499 1501 1503 1504 1506 1507 1509 1511 1512 1513 1514 1515 1516 1517 1518 1519 1519 1520 1520 1520 1520
1454 1455 1456 1458 1460 1462 1464 1466 1468 1470 1472 1474 1476 1478 1480 1482 1484 1485 1487 1489 1491 1493 1495 1497 1498 1500 1501 1503 1505 1506 1507 1509 1510 1511 1512 1513 1514 1515 1516 1515 1515 1515 1515
1451 1452 1453 1455 1457 1459 1460 1462 1464 1466 1468 1470 1472 1474 1476 1478 1479 1481 1483 1485 1487 1489 1490 1492 1494 1496 1497 1499 1501 1502 1503 1504 1505 1507 1508 1509 1509 1510 1511 1511 1511 1511 1511
1448 1449 1451 1453 1454 1455 1457 1459 1461 1463 1465 1467 1469 1470 1472 1474 1476 1478 1479 1481 1483 1484 1486 1488 1490 1491 1493 1495 1496 1497 1499 1500 1501 1502 1503 1504 1505 1506 1507 1507 1507 1506 1506
1446 1447 1449 1450 1452 1453 1454 1456 1457 1459 1461 1463 1465 1467 1468 1470 1472 1474 1476 1477 1479 1480 1482 1484 1485 1487 1489 1490 1492 1493 1494 1495 1497 1498 1499 1500 1501 1502 1503 1503 1503 1503 1502
1444 1445 1447 1448 1449 1450 1452 1453 1455 1456 1458 1460 1461 1463 1465 1467 1469 1470 1472 1473 1475 1476 1478 1480 1481 1483 1485 1486 1488 1489 1490 1491 1492 1494 1495 1496 1497 1498 1499 1499 1499 1499 1499
1442 1443 1444 1445 1446 1447 1449 1450 1452 1453 1455 1457 1458 1460 1461 1463 1465 1466 1468 1469 1471 1473 1475 1476 1478 1479 1481 1483 1484 1485 1486 1487 1489 1490 1491 1492 1493 1494 1495 1495 1495 1495 1494
1440 1441 1442 1443 1444 1445 1446 1448 1449 1451 1452 1454 1455 1457 1458 1460 1462 1463 1464 1465 1467 1469 1471 1472 1474 1476 1477 1479 1480 1481 1481 1483 1484 1485 1486 1487 1488 1489 1490 1491 1491 1490 1490
1438 1439 1440 1441 1442 1443 1444 1445 1447 1448 1450 1451 1453 1455 1456 1457 1459 1460 1461 1463 1464 1465 1467 1468 1470 1472 1474 1475 1476 1477 1478 1479 1480 1481 1482 1483 1484 1485 1485 1486 1486 1487 1486
1436 1437 1438 1439 1440 1441 1442 1443 1445 1446 1447 1449 1450 1452 1453 1455 1456 1457 1459 1460 1462 1462 1463 1465 1467 1469 1470 1472 1473 1474 1475 1476 1476 1477 1478 1478 1479 1480 1481 1481 1482 1483 1483
1435 1435 1436 1437 1438 1439 1440 1441 1443 1444 1445 1446 1448 1449 1451 1453 1454 1455 1456 1458 1459 1460 1460 1462 1464 1465 1467 1468 1469 1470 1471 1472 1472 1473 1473 1474 1475 1476 1477 1478 1478 1478 1479
1433 1434 1435 1436 1437 1438 1439 1440 1441 1442 1443 1444 1446 1447 1449 1450 1452 1453 1453 1454 1455 1457 1458 1459 1460 1462 1463 1464 1465 1466 1467 1468 1469 1469 1470 1471 1472 1472 1473 1473 1473 1473 1474
1433 1433 1434 1435 1436 1437 1438 1439 1440 1441 1442 1443 1444 1445 1447 1448 1449 1451 1451 1452 1453 1454 1455 1456 1457 1458 1459 1460 1462 1463 1464 1464 1465 1465 1466 1467 1467 1468 1469 1469 1469 1469 1469
1432 1433 1433 1434 1435 1436 1437 1438 1439 1441 1442 1443 1444 1445 1445 1447 1447 1448 1449 1450 1450 1451 1452 1452 1453 1455 1456 1457 1458 1459 1460 1460 1461 1462 1462 1463 1464 1464 1465 1465 1465 1465 1465
1431 1432 1432 1433 1434 1435 1436 1436 1438 1440 1441 1442 1442 1443 1444 1445 1445 1446 1446 1447 1448 1449 1449 1450 1451 1452 1452 1453 1454 1455 1456 1457 1457 1458 1459 1459 1460 1460 1461 1461 1461 1461 1461
1431 1431 1432 1433 1434 1435 1435 1436 1437 1437 1438 1439 1441 1441 1442 1442 1443 1443 1444 1444 1445 1446 1446 1447 1448 1448 1449 1450 1451 1452 1452 1453 1454 1454 1455 1455 1456 1456 1457 1457 1457 1457 1457
1430 1431 1432 1433 1433 1434 1435 1435 1436 1437 1437 1438 1439 1440 1440 1440 1441 1441 1442 1442 1442 1443 1443 1444 1445 1445 1446 1447 1447 1448 1449 1449 1450 1450 1450 1451 1452 1452 1452 1452 1452 1452 1452
1430 1431 1431 1432 1433 1433 1434 1434 1435 1435 1436 1437 1437 1438 1438 1438 1438 1439 1439 1439 1440 1440 1440 1441 1441 1442 1442 1443 1444 1444 1445 1445 1446 1446 1446 1447 1447 1447 1448 1448 1448 1448 1448
1429 1430 1431 1431 1432 1432 1433 1433 1434 1434 1435 1435 1436 1436 1437 1437 1436 1437 1437 1437 1437 1437 1438 1438 1438 1438 1439 1439 1440 1440 1440 1441 1441 1441 1442 1442 1442 1443 1443 1443 1443 1443 1443
1429 1429 1430 1430 1431 1431 1432 1432 1433 1433 1433 1434 1434 1435 1435 1434 1434 1434 1434 1434 1434 1435 1435 1435 1434 1435 1435 1435 1435 1436 1436 1436 1436 1437 1437 1437 1437 1437 1438 1438 1438 1438 1438
1428 1429 1429 1430 1430 1430 1431 1431 1431 1431 1432 1432 1432 1432 1432 1432 1432 1432 1432 1431 1431 1431 1431 1431 1431 1431 1431 1431 1431 1431 1431 1431 1431 1432 1432 1432 1432 1432 1432 1432 1432 1432 1433
1427 1428 1428 1428 1428 1429 1429 1429 1429 1429 1430 1430 1430 1430 1429 1429 1429 1429 1428 1428 1428 1427 1427 1427 1427 1426 1426 1426 1426 1426 1426 1426 1426 1426 1426 1426 1426 1426 1426 1427 1427 1427 1427
1426 1427 1427 1427 1427 1427 1427 1427 1427 1427 1427 1427 1427 1427 1427 1426 1426 1425 1425 1424 1424 1423 1423 1423 1422 1422 1421 1421 1421 1420 1420 1420 1420 1420 1420 1420 1420 1420 1421 1421 1421 1421 1421
1425 1425 1425 1425 1425 1425 1425 1425 1425 1425 1425 1425 1424 1424 1424 1423 1422 1422 1421 1420 1420 1419 1418 1418 1417 1417 1416 1416 1415 1415 1414 1414 1414 1414 1414 1414 1414 1414 1414 1415 1415 1415 1415